Location: La Comballaz
(46.3780°N, 7.0817°E)
Time: 06:24:49
(UTC+00:00)

FO-29 - Visible Passes

Search period start: 11 May 2021 00:00
Search period end: 21 May 2021 00:00
Orbit: 801 x 1321 km, 98.6° (Epoch: 10 May)

Date Brightness Start Highest point End Pass type
(mag) Time Alt. Az. Time Alt. Az. Time Alt. Az.
11 May 10.4 20:28:51 18° SE 20:34:32 55° ENE 20:42:09 10° N visible
11 May 11.0 22:15:20 21° SSW 22:19:44 38° W 22:26:58 10° NNW visible
12 May 11.3 19:33:59 10° ESE 19:40:13 28° ENE 19:46:32 10° N visible
12 May 10.1 21:19:29 25° S 21:24:25 80° WSW 21:32:22 10° NNW visible
12 May 11.9 23:05:57 11° WSW 23:10:34 18° W 23:15:37 10° NW visible
13 May 10.5 20:23:38 16° SE 20:29:38 52° ENE 20:37:12 10° N visible
13 May 11.0 22:10:07 21° SSW 22:14:45 40° W 22:22:06 10° NNW visible
14 May 11.3 19:29:13 10° ESE 19:35:21 27° NE 19:41:31 10° N visible
14 May 10.1 21:14:17 24° SSE 21:19:30 84° WSW 21:27:26 10° NNW visible
14 May 11.9 23:00:45 11° SW 23:05:33 19° W 23:10:53 10° NW visible
15 May 10.5 20:18:26 15° SE 20:24:45 50° ENE 20:32:13 10° N visible
15 May 10.9 22:04:55 21° SSW 22:09:48 43° W 22:17:13 10° NNW visible
16 May 10.1 21:09:05 22° SSE 21:14:36 88° WSW 21:22:30 10° NNW visible
16 May 11.8 22:55:34 11° SW 23:00:32 21° W 23:06:07 10° NW visible
17 May 10.6 20:13:15 13° SE 20:19:53 47° ENE 20:27:14 10° N visible
17 May 10.8 21:59:44 20° SSW 22:04:50 45° W 22:12:19 10° NNW visible
18 May 10.1 21:03:54 21° SSE 21:09:41 88° ENE 21:17:32 10° NNW visible
18 May 11.8 22:50:23 12° SW 22:55:32 22° W 23:01:19 10° NW visible
19 May 10.7 20:08:05 12° SE 20:15:00 45° ENE 20:22:14 10° N visible
19 May 10.8 21:54:34 20° SSW 21:59:53 48° W 22:07:24 10° NNW visible
20 May 10.1 20:58:45 19° SSE 21:04:46 84° ENE 21:12:34 10° NNW visible
20 May 11.7 22:45:13 12° SW 22:50:31 23° W 22:56:29 10° NW visible
